Showing default

TACSAT 6, 39473

Orbit data source: Space-Track

TACSAT 6, 39473 is a payload satellite owned by SMDC (US) in LEO that was launched on Fri, 06 Dec 2013 UTC via an ATLAS V 501 launch vehicle from the Air Force Western Test Range (AFWTR). Payload-class satellites include a variety of spacecraft equipped with specific instruments for various scientific and technological missions. These include communications satellites like Starlink; space stations such as the ISS; scientific satellites like the Hubble; Earth observation satellites from companies like Planet Labs, Umbra, and HawkEye 360; GPS; miniature CubeSats for education and research; and military/defense satellites.

Loading next visibility...
Identifier
39473, 2013-072M
Orbit
LEO
Country
Flag of USUS
Related business
Manufacturer
DUCOMM?
Mission
Operational Defense Communications
Bus & Motor
CUBESAT 3U, Unknown motor
Mass
4 kg wet, 4 kg dry
Launch date (UTC)
2013-12-06 (13 years ago)
Launch vehicle
ATLAS V 501
Launch site
Air Force Western Test Range (AFWTR)
Object type
Payload
Rocket body
Debris
Shape & HBR
Box, 0.1 m
Radar Cross Section
0.075 m², Medium (>0.1 m² and < 1m²)

Expand to show TLE details & history
Last TLE update: 5 days ago

TLE from 5 days ago
0 TACSAT 6
1 39473U 13072M   26154.76391304  .00107452  00000-0  11200-2 0  9995
2 39473 120.4625  79.6696 0069453  41.4822 319.1516 15.60798535117261
Epoch: 2026-06-03T18:20Z
TLE epoch observation values (Epoch: 2026-06-03T18:20:02.086Z)
Latitude
-0.00003°
Longitude
-87.55693°
Altitude
351.533 km
Speed
7.719 km/s
True Right ascension
05h 18m 40s
True Declination
0° 00' 00"
Sunlit
Object was in daylight at epoch
Visualization orbit readout
Latitude
Unknown
Longitude
Unknown
Altitude
Unknown
Speed
Unknown
Apparent Right ascension
Unknown
Apparent Declination
Unknown
Sunlit
N/A
Visualization observer readout
Local Sidereal Time
12:46:50
Azimuth
Unknown
Elevation
Unknown
Doppler factor
Unknown
Orbital elements
Apogee altitude
431.577 km
Perigee altitude
337.639 km
Semi-major axis
6,762.745 km
Eccentricity
0.00695
Inclination
120.4625°
RAAN
79.6696°
Arg. of periapsis
41.4822°
True anomaly
318.62762°
Mean anomaly
319.1516°
Eccentric anomaly
318.88995°
Mean motion
3.90264 °/min
Orbital period
92.25 mins
BSTAR
0.00112
Loading maneuver chart data...
Computing Atmospheric mass density...
Loading historical data...
Loading historical data...
Loading historical data...
Loading historical data...
Loading historical data...
Loading historical data...
Loading historical data...

Documentation

Showing up to 5 results
|